When you browse on this site, cookies collect data to enhance your experience and personalize the content and advertising you see.
Visit our Privacy Policy to learn more. By continuing to use the site, you agree to this use of cookies and data.
  • In Deutschland
  • Länderverzeichnis
  • Für 7 Tage
  • Wassertemperatur
  • Wetterkarte
  • Widgets
  • user-avatar
    Anmelden

    Stündliche Wetter Fier

    Heute, 23 August, Freitag

    Zeit Temperatur Niederschläge Wind Luftdruck Luftfeuchtigkeit
    00:00 +27°C° 0 mm 2 m/S 762 mmHg 54%
    01:00 +27°C° 0 mm 2 m/S 762 mmHg 52%
    02:00 +27°C° 0 mm 2 m/S 762 mmHg 51%
    03:00 +27°C° 0 mm 2 m/S 762 mmHg 49%
    04:00 +27°C° 0 mm 2 m/S 762 mmHg 48%
    05:00 +28°C° 0 mm 2 m/S 762 mmHg 44%
    06:00 +30°C° 0 mm 1 m/S 762 mmHg 39%
    07:00 +32°C° 0 mm 2 m/S 762 mmHg 35%
    08:00 +35°C° 0 mm 2 m/S 762 mmHg 32%
    09:00 +37°C° 0 mm 2 m/S 762 mmHg 28%
    10:00 +39°C° 0 mm 2 m/S 762 mmHg 24%
    11:00 +39°C° 0 mm 3 m/S 762 mmHg 26%
    12:00 +38°C° 0 mm 4 m/S 762 mmHg 28%
    13:00 +37°C° 0 mm 5 m/S 761 mmHg 29%
    14:00 +37°C° 0 mm 4 m/S 761 mmHg 32%
    15:00 +36°C° 0 mm 3 m/S 761 mmHg 34%
    16:00 +35°C° 0 mm 2 m/S 760 mmHg 37%
    17:00 +34°C° 0 mm 2 m/S 760 mmHg 40%
    18:00 +31°C° 0 mm 2 m/S 761 mmHg 44%
    19:00 +30°C° 0 mm 1 m/S 761 mmHg 47%
    20:00 +29°C° 0.6 mm 1 m/S 761 mmHg 51%
    21:00 +28°C° 0.6 mm 1 m/S 761 mmHg 55%
    22:00 +27°C° 0.6 mm 1 m/S 761 mmHg 59%
    23:00 +27°C° 0.5 mm 1 m/S 761 mmHg 62%

    Morgen, 24 August, Samstag

    Zeit Temperatur Niederschläge Wind Luftdruck Luftfeuchtigkeit
    00:00 +26°C° 0.5 mm 2 m/S 761 mmHg 64%
    01:00 +26°C° 0.5 mm 2 m/S 761 mmHg 66%
    02:00 +26°C° 0.1 mm 2 m/S 761 mmHg 66%
    03:00 +25°C° 0.1 mm 2 m/S 761 mmHg 66%
    04:00 +25°C° 0.1 mm 2 m/S 761 mmHg 65%
    05:00 +26°C° 0.2 mm 2 m/S 761 mmHg 61%
    06:00 +28°C° 0.2 mm 2 m/S 761 mmHg 56%
    07:00 +29°C° 0.2 mm 2 m/S 761 mmHg 52%
    08:00 +31°C° 0.1 mm 2 m/S 761 mmHg 45%
    09:00 +35°C° 0.1 mm 2 m/S 761 mmHg 39%
    10:00 +37°C° 0.1 mm 2 m/S 761 mmHg 32%
    11:00 +37°C° 0 mm 3 m/S 761 mmHg 32%
    12:00 +37°C° 0 mm 4 m/S 760 mmHg 32%
    13:00 +37°C° 0 mm 5 m/S 760 mmHg 32%
    14:00 +37°C° 0 mm 5 m/S 760 mmHg 34%
    15:00 +36°C° 0 mm 5 m/S 760 mmHg 36%
    16:00 +35°C° 0 mm 5 m/S 760 mmHg 38%
    17:00 +34°C° 0 mm 4 m/S 760 mmHg 41%
    18:00 +33°C° 0 mm 3 m/S 760 mmHg 43%
    19:00 +31°C° 0 mm 2 m/S 760 mmHg 46%
    20:00 +30°C° 0 mm 2 m/S 760 mmHg 49%
    21:00 +29°C° 0 mm 3 m/S 760 mmHg 51%
    22:00 +28°C° 0 mm 3 m/S 760 mmHg 54%
    23:00 +28°C° 0 mm 3 m/S 760 mmHg 54%

    übermorgen, 25 August, Sonntag

    Zeit Temperatur Niederschläge Wind Luftdruck Luftfeuchtigkeit
    00:00 +27°C° 0 mm 2 m/S 760 mmHg 53%
    01:00 +27°C° 0 mm 2 m/S 760 mmHg 53%
    02:00 +27°C° 0 mm 2 m/S 760 mmHg 52%
    03:00 +26°C° 0 mm 2 m/S 760 mmHg 52%
    04:00 +26°C° 0 mm 2 m/S 759 mmHg 51%
    05:00 +27°C° 0 mm 2 m/S 759 mmHg 46%
    06:00 +29°C° 0 mm 2 m/S 760 mmHg 41%
    07:00 +30°C° 0 mm 2 m/S 760 mmHg 36%
    08:00 +32°C° 0 mm 2 m/S 760 mmHg 32%
    09:00 +36°C° 0 mm 2 m/S 760 mmHg 28%
    10:00 +38°C° 0 mm 2 m/S 760 mmHg 24%
    11:00 +38°C° 0 mm 4 m/S 759 mmHg 26%
    12:00 +39°C° 0 mm 5 m/S 759 mmHg 28%
    13:00 +39°C° 0 mm 6 m/S 759 mmHg 29%
    14:00 +38°C° 0 mm 6 m/S 759 mmHg 32%
    15:00 +36°C° 0 mm 5 m/S 758 mmHg 35%
    16:00 +35°C° 0 mm 5 m/S 758 mmHg 39%
    17:00 +33°C° 0 mm 4 m/S 758 mmHg 46%
    18:00 +30°C° 0 mm 3 m/S 759 mmHg 54%
    19:00 +29°C° 0 mm 2 m/S 759 mmHg 61%
    20:00 +28°C° 0 mm 2 m/S 759 mmHg 65%
    21:00 +28°C° 0 mm 2 m/S 760 mmHg 69%
    22:00 +27°C° 0 mm 1 m/S 760 mmHg 72%
    23:00 +27°C° 0 mm 2 m/S 760 mmHg 72%

    26 August, Montag

    Zeit Temperatur Niederschläge Wind Luftdruck Luftfeuchtigkeit
    00:00 +26°C° 0 mm 2 m/S 759 mmHg 72%
    01:00 +26°C° 0 mm 2 m/S 759 mmHg 71%
    02:00 +26°C° 0 mm 2 m/S 759 mmHg 68%
    03:00 +26°C° 0 mm 2 m/S 759 mmHg 65%
    04:00 +26°C° 0 mm 2 m/S 759 mmHg 61%
    05:00 +27°C° 0 mm 2 m/S 759 mmHg 55%
    06:00 +28°C° 0 mm 2 m/S 759 mmHg 49%
    07:00 +29°C° 0 mm 2 m/S 759 mmHg 43%
    08:00 +32°C° 0 mm 2 m/S 760 mmHg 37%
    09:00 +35°C° 0 mm 2 m/S 760 mmHg 32%
    10:00 +37°C° 0 mm 2 m/S 760 mmHg 27%
    11:00 +37°C° 0 mm 3 m/S 760 mmHg 29%
    12:00 +37°C° 0 mm 4 m/S 759 mmHg 31%
    13:00 +38°C° 0 mm 6 m/S 759 mmHg 33%
    14:00 +36°C° 0 mm 5 m/S 759 mmHg 35%
    15:00 +35°C° 0 mm 4 m/S 759 mmHg 38%
    16:00 +34°C° 0 mm 3 m/S 759 mmHg 40%
    17:00 +33°C° 0 mm 3 m/S 759 mmHg 47%
    18:00 +30°C° 0 mm 2 m/S 759 mmHg 53%
    19:00 +29°C° 0 mm 2 m/S 760 mmHg 59%
    20:00 +28°C° 0 mm 2 m/S 760 mmHg 59%
    21:00 +28°C° 0 mm 2 m/S 760 mmHg 58%
    22:00 +28°C° 0 mm 2 m/S 760 mmHg 58%
    23:00 +27°C° 0 mm 2 m/S 760 mmHg 56%

    27 August, Dienstag

    Zeit Temperatur Niederschläge Wind Luftdruck Luftfeuchtigkeit
    00:00 +27°C° 0 mm 2 m/S 760 mmHg 54%
    01:00 +27°C° 0 mm 2 m/S 760 mmHg 52%
    02:00 +27°C° 0 mm 2 m/S 760 mmHg 52%
    03:00 +27°C° 0 mm 2 m/S 760 mmHg 52%
    04:00 +26°C° 0 mm 2 m/S 760 mmHg 51%
    05:00 +28°C° 0 mm 2 m/S 760 mmHg 47%
    06:00 +29°C° 0 mm 2 m/S 760 mmHg 43%
    07:00 +31°C° 0 mm 1 m/S 760 mmHg 39%
    08:00 +34°C° 0 mm 2 m/S 760 mmHg 35%
    09:00 +35°C° 0 mm 2 m/S 760 mmHg 31%
    10:00 +37°C° 0 mm 3 m/S 760 mmHg 26%
    11:00 +37°C° 0 mm 4 m/S 760 mmHg 28%
    12:00 +37°C° 0 mm 5 m/S 760 mmHg 29%
    13:00 +37°C° 0 mm 5 m/S 760 mmHg 30%
    14:00 +36°C° 0 mm 5 m/S 760 mmHg 32%
    15:00 +36°C° 0 mm 4 m/S 760 mmHg 33%
    16:00 +35°C° 0 mm 3 m/S 760 mmHg 35%
    17:00 +33°C° 0 mm 3 m/S 760 mmHg 41%
    18:00 +30°C° 0 mm 2 m/S 760 mmHg 47%
    19:00 +28°C° 0 mm 2 m/S 760 mmHg 54%
    20:00 +28°C° 0 mm 2 m/S 761 mmHg 53%
    21:00 +28°C° 0 mm 2 m/S 761 mmHg 53%
    22:00 +27°C° 0 mm 2 m/S 761 mmHg 53%
    23:00 +27°C° 0 mm 2 m/S 761 mmHg 53%

    28 August, Mittwoch

    Zeit Temperatur Niederschläge Wind Luftdruck Luftfeuchtigkeit
    00:00 +26°C° 0 mm 2 m/S 761 mmHg 53%
    01:00 +26°C° 0 mm 2 m/S 761 mmHg 54%
    02:00 +26°C° 0 mm 2 m/S 760 mmHg 54%
    03:00 +25°C° 0 mm 2 m/S 760 mmHg 54%
    04:00 +25°C° 0 mm 2 m/S 760 mmHg 54%
    05:00 +27°C° 0 mm 2 m/S 760 mmHg 50%
    06:00 +28°C° 0 mm 2 m/S 760 mmHg 46%
    07:00 +29°C° 0 mm 2 m/S 760 mmHg 42%
    08:00 +32°C° 0 mm 2 m/S 760 mmHg 37%
    09:00 +35°C° 0 mm 2 m/S 760 mmHg 32%
    10:00 +37°C° 0 mm 2 m/S 760 mmHg 27%
    11:00 +37°C° 0 mm 3 m/S 760 mmHg 28%
    12:00 +37°C° 0 mm 4 m/S 760 mmHg 29%
    13:00 +37°C° 0 mm 5 m/S 759 mmHg 30%
    14:00 +36°C° 0 mm 5 m/S 759 mmHg 32%
    15:00 +35°C° 0 mm 4 m/S 759 mmHg 35%
    16:00 +34°C° 0 mm 3 m/S 759 mmHg 38%
    17:00 +31°C° 0 mm 3 m/S 759 mmHg 44%
    18:00 +30°C° 0 mm 2 m/S 759 mmHg 51%
    19:00 +28°C° 0 mm 2 m/S 759 mmHg 57%
    20:00 +28°C° 0 mm 2 m/S 759 mmHg 57%
    21:00 +28°C° 0 mm 1 m/S 760 mmHg 57%
    22:00 +27°C° 0 mm 1 m/S 760 mmHg 57%
    23:00 +27°C° 0 mm 1 m/S 760 mmHg 56%
    Mehr zeigen